This is the latest recevied weather packets stored in our database for station/object K9YK-13. If no packets are shown the sender has not sent any weather packets the latest 10 day(s).
| Time | Temp. | Humidity | Pressure | Rain* | Wind** | Luminosity | Snow |
|---|---|---|---|---|---|---|---|
| 1778194868 | 16.67° C | 63% | 0 hPa | 0 mm | - | - | - |
| 1778194569 | 16.11° C | 63% | 0 hPa | 0 mm | - | - | - |
| 1778194269 | 15.56° C | 64% | 0 hPa | 0 mm | - | - | - |
| 1778193968 | 16.67° C | 65% | 0 hPa | 0 mm | - | - | - |
| 1778193669 | 16.67° C | 63% | 0 hPa | 0 mm | - | - | - |
| 1778193369 | 17.22° C | 62% | 0 hPa | 0 mm | - | - | - |
| 1778193069 | 16.67° C | 62% | 0 hPa | 0 mm | - | - | - |
| 1778192769 | 16.67° C | 61% | 0 hPa | 0 mm | - | - | - |
| 1778192468 | 17.22° C | 61% | 0 hPa | 0 mm | - | - | - |
| 1778192169 | 17.22° C | 62% | 0 hPa | 0 mm | - | - | - |
| 1778191868 | 16.67° C | 61% | 0 hPa | 0 mm | - | - | - |
| 1778191569 | 16.67° C | 62% | 0 hPa | 0 mm | - | - | - |
| 1778191269 | 16.11° C | 63% | 0 hPa | 0 mm | - | - | - |
| 1778190969 | 15.56° C | 64% | 0 hPa | 0 mm | - | - | - |
| 1778190668 | 15.56° C | 64% | 0 hPa | 0 mm | - | - | - |
| 1778190369 | 16.11° C | 66% | 0 hPa | 0 mm | - | - | - |
| 1778190069 | 15.56° C | 70% | 0 hPa | 0 mm | - | - | - |
| 1778189769 | 15.56° C | 70% | 0 hPa | 0 mm | - | - | - |
| 1778189469 | 14.44° C | 71% | 0 hPa | 0 mm | - | - | - |
| 1778189169 | 13.33° C | 74% | 0 hPa | 0 mm | - | - | - |
| 1778188869 | 13.33° C | 76% | 0 hPa | 0 mm | - | - | - |
| 1778188569 | 12.78° C | 77% | 0 hPa | 0 mm | - | - | - |
| 1778188269 | 12.78° C | 79% | 0 hPa | 0 mm | - | - | - |
| 1778187969 | 12.22° C | 81% | 0 hPa | 0 mm | - | - | - |
| 1778187669 | 11.67° C | 82% | 0 hPa | 0 mm | - | - | - |
* Rain latest hour (hover to see other rain measurements)
** Current wind speed in m/s (hover to see current wind gust speed)